TimeAKST,TemperatureF,Dew PointF,Humidity,Sea Level PressureIn,VisibilityMPH,Wind Direction,Wind SpeedMPH,Gust SpeedMPH,PrecipitationIn,Events,Conditions,WindDirDegrees,DateUTC
12:53 AM,17.1,14.0,88,30.01,10.0,Calm,Calm,-,N/A,,Overcast,0,2013-11-16 09:53:00
1:53 AM,17.1,15.1,92,30.02,10.0,Calm,Calm,-,N/A,,Overcast,0,2013-11-16 10:53:00
2:53 AM,17.1,15.1,92,30.03,10.0,NE,3.5,-,N/A,,Overcast,40,2013-11-16 11:53:00
3:53 AM,18.0,15.1,88,30.04,10.0,Calm,Calm,-,N/A,,Overcast,0,2013-11-16 12:53:00
4:53 AM,19.0,16.0,88,30.04,10.0,North,4.6,-,N/A,,Overcast,10,2013-11-16 13:53:00
5:53 AM,18.0,15.1,88,30.06,10.0,North,4.6,-,N/A,,Overcast,350,2013-11-16 14:53:00
6:53 AM,19.0,14.0,81,30.08,10.0,North,3.5,-,N/A,,Overcast,360,2013-11-16 15:53:00
7:53 AM,18.0,15.1,88,30.09,10.0,Calm,Calm,-,N/A,,Mostly Cloudy,0,2013-11-16 16:53:00
8:53 AM,16.0,12.9,88,30.11,10.0,Calm,Calm,-,N/A,,Scattered Clouds,0,2013-11-16 17:53:00
9:53 AM,10.0,8.1,92,30.13,10.0,Variable,3.5,-,N/A,,Partly Cloudy,0,2013-11-16 18:53:00
10:53 AM,16.0,12.9,88,30.14,10.0,Calm,Calm,-,N/A,,Clear,0,2013-11-16 19:53:00
11:53 AM,18.0,12.9,81,30.14,10.0,NNW,3.5,-,N/A,,Clear,330,2013-11-16 20:53:00
12:53 PM,18.0,12.0,78,30.14,10.0,Calm,Calm,-,N/A,,Clear,0,2013-11-16 21:53:00
1:53 PM,18.0,12.0,78,30.15,10.0,ENE,3.5,-,N/A,,Clear,60,2013-11-16 22:53:00
2:53 PM,19.0,10.0,68,30.15,10.0,Calm,Calm,-,N/A,,Partly Cloudy,0,2013-11-16 23:53:00
3:53 PM,14.0,10.0,84,30.15,10.0,Calm,Calm,-,N/A,,Partly Cloudy,0,2013-11-17 00:53:00
4:53 PM,10.9,7.0,84,30.17,10.0,Calm,Calm,-,N/A,,Partly Cloudy,0,2013-11-17 01:53:00
5:53 PM,10.0,3.9,76,30.17,10.0,NNW,9.2,-,N/A,,Clear,340,2013-11-17 02:53:00
6:53 PM,9.0,1.9,73,30.19,10.0,NNW,11.5,-,N/A,,Clear,340,2013-11-17 03:53:00
7:53 PM,9.0,1.0,70,30.19,10.0,NNW,12.7,-,N/A,,Clear,340,2013-11-17 04:53:00
8:53 PM,7.0,-0.9,70,30.20,10.0,NNW,12.7,19.6,N/A,,Clear,340,2013-11-17 05:53:00
9:53 PM,7.0,-0.9,70,30.19,10.0,North,13.8,-,N/A,,Clear,350,2013-11-17 06:53:00
10:53 PM,8.1,-0.9,67,30.19,10.0,North,8.1,-,N/A,,Clear,350,2013-11-17 07:53:00
11:53 PM,-0.9,-4.0,87,30.22,10.0,Calm,Calm,-,N/A,,Clear,0,2013-11-17 08:53:00